星链-31636 (STARLINK-31636 )

导读

STARLINK-31636是美国太空探索技术公司星链计划中的卫星,于北京时间2024年5月13日8点成功发射。星链计划旨在构建全球卫星互联网星座,该卫星入轨后将进一步扩充星链星座规模,助力提升全球范围尤其是偏远地区的互联网覆盖能力,推动全球网络互联基础设施建设。

基本信息
目录编号:
59747
目录名称:
STARLINK-31636
国际标识:
2024-090T
轨道中心:
EARTH
卫星名称:
星链-31636
卫星全名:
星链-31636 (STARLINK-31636 )
卫星状态:
在轨 (已飞行766 天)
发射日期:
2024-05-13 UTC
国别 :
美国 (US)
星等 :
--
轨道信息
数据来源 国际轨道数据
星历时间: 2026-06-17T21:04:16+0800
16小时前
查看轨道信息
半长轴: 6861.204km
偏心率: 0.0001493
轨道倾角: 42.996°
近地点辐角 147.877°
升交点赤经 339.391°
平近点角 212.217°
近地点: 482.042km
远地点: 484.092km
周期: 94.267分钟
每日圈数: 15.275742
详细信息
固有亮度:
5
最大亮度:
1.5
卫星平台:
Starlink v2.0 mini
覆盖范围:
全球
运营商:
太空探索技术公司
运营商所在国:
美国
制造商(研发单位):
太空探索技术公司
制造商所在国:
美国
使用方式:
暂无
卫星简介
星链(Starlink)计划是由太空探索技术公司(SpaceX)提出的一个巨型低轨卫星互联网星座项目,计划在2019年至2024年间在太空搭建由约1.2万颗卫星组成的“星链”网络,其中1584颗将部署在地球上空550千米处的近地轨道,并从2020年开始工作。该卫星仍在工作。
2D轨道图
3D轨道图
轨道高度分析图
轨道倾角分析图
轨道综合分析图
查看轨道综合分析图